TimeCDT,TemperatureF,Dew PointF,Humidity,Sea Level PressureIn,VisibilityMPH,Wind Direction,Wind SpeedMPH,Gust SpeedMPH,PrecipitationIn,Events,Conditions,WindDirDegrees,DateUTC
12:51 AM,72.0,63.0,73,29.88,10.0,ESE,9.2,-,N/A,,Partly Cloudy,120,2013-05-19 05:51:00
1:51 AM,73.0,64.0,73,29.87,10.0,SE,8.1,-,N/A,,Overcast,140,2013-05-19 06:51:00
2:48 AM,73.4,64.4,73,29.89,10.0,SE,10.4,-,N/A,,Overcast,130,2013-05-19 07:48:00
2:51 AM,73.4,64.4,73,29.89,10.0,SE,9.2,-,N/A,,Overcast,130,2013-05-19 07:51:00
3:04 AM,71.6,64.4,78,29.89,10.0,ESE,9.2,-,N/A,,Overcast,120,2013-05-19 08:04:00
3:51 AM,72.0,64.0,76,29.86,10.0,SE,9.2,-,N/A,,Mostly Cloudy,140,2013-05-19 08:51:00
4:51 AM,72.0,64.0,76,29.86,10.0,SE,6.9,-,N/A,,Mostly Cloudy,130,2013-05-19 09:51:00
5:51 AM,71.1,64.9,81,29.84,9.0,SE,8.1,28.8,N/A,,Mostly Cloudy,140,2013-05-19 10:51:00
6:51 AM,72.0,64.9,78,29.83,9.0,SE,9.2,-,N/A,,Overcast,130,2013-05-19 11:51:00
7:51 AM,73.9,66.0,76,29.84,9.0,SSE,9.2,-,N/A,,Mostly Cloudy,150,2013-05-19 12:51:00
8:51 AM,77.0,68.0,74,29.85,8.0,SSE,12.7,-,N/A,,Mostly Cloudy,160,2013-05-19 13:51:00
9:51 AM,78.1,69.1,74,29.88,8.0,SW,10.4,-,N/A,,Overcast,220,2013-05-19 14:51:00
10:51 AM,82.9,71.1,67,29.86,8.0,WSW,4.6,-,N/A,,Mostly Cloudy,240,2013-05-19 15:51:00
11:51 AM,84.9,72.0,65,29.82,8.0,SSE,10.4,-,N/A,,Mostly Cloudy,150,2013-05-19 16:51:00
12:51 PM,87.1,71.1,59,29.80,7.0,SE,11.5,-,N/A,,Mostly Cloudy,130,2013-05-19 17:51:00
1:51 PM,88.0,70.0,55,29.77,7.0,SE,13.8,20.7,N/A,,Mostly Cloudy,130,2013-05-19 18:51:00
2:51 PM,90.0,70.0,52,29.74,8.0,SE,18.4,24.2,N/A,,Mostly Cloudy,140,2013-05-19 19:51:00
3:51 PM,91.0,68.0,47,29.72,8.0,SSE,19.6,28.8,N/A,,Scattered Clouds,160,2013-05-19 20:51:00
4:51 PM,90.0,70.0,52,29.71,8.0,SSE,23.0,28.8,N/A,,Scattered Clouds,160,2013-05-19 21:51:00
5:51 PM,89.1,69.1,52,29.70,8.0,North,-9999.0,-,N/A,,Scattered Clouds,0,2013-05-19 22:51:00
6:51 PM,87.1,68.0,53,29.68,9.0,SSE,19.6,25.3,N/A,,Scattered Clouds,160,2013-05-19 23:51:00
7:51 PM,86.0,61.0,43,29.70,10.0,South,12.7,-,N/A,,Mostly Cloudy,170,2013-05-20 00:51:00
8:51 PM,84.0,61.0,46,29.72,10.0,South,18.4,23.0,N/A,,Scattered Clouds,170,2013-05-20 01:51:00
9:51 PM,82.0,63.0,52,29.75,10.0,South,17.3,23.0,N/A,,Scattered Clouds,170,2013-05-20 02:51:00
10:51 PM,81.0,64.0,56,29.78,10.0,South,16.1,24.2,N/A,,Partly Cloudy,180,2013-05-20 03:51:00
11:51 PM,80.1,64.9,60,29.76,10.0,South,12.7,19.6,N/A,,Scattered Clouds,180,2013-05-20 04:51:00